User: anonymous   Login
Location: Oshawa
(43.9000°N, 78.8670°W)
Time: 17:58:14
(UTC-05:00)
Language:

ITAMSAT 1 - Orbit

View from above orbital plane
View from above orbital plane
View from above satellite
View from above satellite

Ground track
Ground track

The orbit data is extracted from the following two-line orbital elements,

1 22826U 93061D   14353.44763078  .00000327  00000-0  14345-3 0  6038
2 22826 098.6812 298.9379 0010107 106.6003 253.6290 14.30113356107392
Epoch (UTC): 19 December 2014 10:44:35
Eccentricity: 0.0010107
inclination: 98.6812°
perigee height: 784 km
apogee height: 798 km
right ascension of ascending node: 298.9379°
argument of perigee: 106.6003°
revolutions per day: 14.30113356
mean anomaly at epoch: 253.6290°
orbit number at epoch: 10739

The dashed part of the orbit path shows where the satellite is in the earth's shadow,  

DLR